DELTA 1 DEB

基本信息
目录编号:
29186
目录名称:
DELTA 1 DEB
国际标识:
1968-002K
轨道中心:
EARTH
物体状态:
在轨
发射日期:
1968-01-11 UTC
轨道信息
数据来源: 国际轨道数据
星历时间: 2026-06-14T00:59:46+0800
半长轴: 7667.506km
偏心率: 0.0308482
轨道倾角: 105.812°
近地点辐角: 164.705°
升交点赤经: 346.345°
平近点角: 264.966°
近地点: 1052.84km
远地点: 1525.898km
周期: 111.363分钟
每日圈数: 12.930687
详细信息
发射场:
AFWTR
轨道高度:
LEO
数据来源:
AOE Integration Group
参考系:
TEME
时间系统:
UTC
历元类型:
SGP4
2D轨道图
3D轨道图
轨道高度分析图
轨道倾角分析图
轨道综合分析图
查看轨道综合分析图